COSMOS 1823 DEB, 39827

Orbit data source: Space-Track

COSMOS 1823 DEB, 39827 is space debris in LEO originally from a launch on Fri, 20 Feb 1987 UTC launched from the Plesetsk Missile And Space Complex (PKMTR). Debris objects in space refer to the collection of defunct objects orbiting the Earth. Examples of debris include non-operational satellites, rocket bodies, and fragments generated from explosions, collisions, or faulty payload assembly.

Loading next visibility...
Identifier
39827, 1987-020FB
Orbit
LEO
Country
Flag of CISCIS
Related business
Manufacturer
Unknown
Mission
Spacecraft
Bus & Motor
Unknown
Mass
Unknown
Launch date (UTC)
1987-02-20 (39 years ago)
Launch vehicle
Unknown
Launch site
Plesetsk Missile And Space Complex (PKMTR)
Object type
Payload
Rocket body
Debris
Shape & HBR
Unknown shape, 0.1 m
Radar Cross Section
Small (<0.1 m²)

Expand to show TLE details & history
Last TLE update: 2 days ago

TLE from 2 days ago
0 COSMOS 1823 DEB
1 39827U 87020FB  26171.32057031 -.00000009  00000-0  60992-4 0  9994
2 39827  73.5993  24.9907 0027955 234.7207 125.1221 12.41968110547082
Epoch: 2026-06-20T07:41Z
TLE epoch observation values (Epoch: 2026-06-20T07:41:37.274Z)
Latitude
-0.00009°
Longitude
1.04848°
Altitude
1,513.329 km
Speed
7.103 km/s
True Right ascension
01h 39m 57s
True Declination
0° 00' 00"
Sunlit
Object was in daylight at epoch
Visualization orbit readout
Latitude
Unknown
Longitude
Unknown
Altitude
Unknown
Speed
Unknown
Apparent Right ascension
Unknown
Apparent Declination
Unknown
Sunlit
N/A
Visualization observer readout
Local Sidereal Time
03:41:51
Azimuth
Unknown
Elevation
Unknown
Doppler factor
Unknown
Orbital elements
Apogee altitude
1,518.162 km
Perigee altitude
1,474.137 km
Semi-major axis
7,874.286 km
Eccentricity
0.0028
Inclination
73.5993°
RAAN
24.9907°
Arg. of periapsis
234.7207°
True anomaly
125.38359°
Mean anomaly
125.1221°
Eccentric anomaly
125.2529°
Mean motion
3.10618 °/min
Orbital period
115.9 mins
BSTAR
0.000060992
Loading maneuver chart data...
Computing Atmospheric mass density...

Documentation

Showing up to 5 results
|